Jump to content
Jazz

FSATIS. Бесплатный погодник для полетов онлайн.

Recommended Posts

Строчка в файле "meteo.dat"     =>   USNN, 60.569000, 076.288000, 126.600, RUS, 3/27 21/207

Строчка в файле "stations.dat"  =>   USNN;NIZHNEVARTOVSK;Russian Federation;60.95;76.4833333333333;177

 

Должно работать...

Share this post


Link to post
Share on other sites

Строчка в файле "meteo.dat"     =>   USNN, 60.569000, 076.288000, 126.600, RUS, 3/27 21/207

Строчка в файле "stations.dat"  =>   USNN;NIZHNEVARTOVSK;Russian Federation;60.95;76.4833333333333;177

 

Должно работать...

В stations.dat он изначально (после обновления через инет) присутствует.

Вопрос, как вы узнали координаты для meteo.dat и почему направления полос 27/207 вместо реальных 26/206?

У меня на второй станции (как и положено для FSATIS) метар проговаривается вместе с симовским АТИСом (проверено на дефолтной Цессне в Сургуте)

 

Снова вылет FSATISа, причем погоду он успевает загрузить.

 

Сигнатура проблемы:

Имя события проблемы: BEX

Имя приложения: FSATIS.exe

Версия приложения: 1.0.0.1

Отметка времени приложения: 52b08915

Имя модуля с ошибкой: FSATIS.exe

Версия модуля с ошибкой: 1.0.0.1

Отметка времени модуля с ошибкой: 52b08915

Смещение исключения: 00038480

Код исключения: c000000d

Данные исключения: 00000000

Версия ОС: 6.1.7601.2.1.0.256.1

Код языка: 1049

Дополнительные сведения 1: ba72

Дополнительные сведения 2: ba72d1cd72fba2912fae7e97ce893b0a

Дополнительные сведения 3: c09d

Дополнительные сведения 4: c09d0876c9c8d762cc5821cdfffffb1e

 

 

Edited by Aero-Sennin

Share this post


Link to post
Share on other sites

из-за FSatis проподают текстуры(( заданий и самолетов, сегодня и земли.

Может как-то можно решить эту проблему.

Share this post


Link to post
Share on other sites

Вопрос, как вы узнали координаты для meteo.dat и почему направления полос 27/207 вместо реальных 26/206?

Я ничего не узнавал, я лишь предоставил строчки которые присутствуют у меня в файлах, и повнимательнее будьте, я написал...21/207,а не 27/207. У вас, что полоса в Нижневартовске 8/26? в реале 3/21, соответственно 3(27)/21(207)... Направление полос можно самому править(в пределах разумного), на работу проги никак не повлияет. Edited by Ринат

Share this post


Link to post
Share on other sites

Я ничего не узнавал, я лишь предоставил строчки которые присутствуют у меня в файлах, и повнимательнее будьте, я написал...21/207,а не 27/207. У вас, что полоса в Нижневартовске 8/26? в реале 3/21, соответственно 3(27)/21(207)... Направление полос можно самому править(в пределах разумного), на работу проги никак не повлияет.

Я торопился. У меня в meteo.dat стоит USNN, 60.569000, 076.288000, 126.600, RUS, 3/27 21/207

Происходит вылет проги, даже будучи в Сургуте. (((

Edited by Aero-Sennin

Share this post


Link to post
Share on other sites

Приветствую уважаемые форумовчане! Надеюсь вы мне

поможите! Расскажу свою проблему так: Я установил

ФСатис где то месяца 4 назад и сразу начались

проблемы с его запуском то не обновлялась погода, а

потом полазил по форуму нашел пару советов сделал

настройку ФСУПИКа (версия 3.96) включил сим

запустил полет, включил фсатис через минуту текстуры

стали серыми ничего не видно даже панель самолета, я

опять полез на форум в итоге я не правильно поставили

сам фсатис, в итоге я сделал как мне посоветовали на

форуме и фсатис заработал, но продолжалось все

недолго меньше месяца, все началось с того что

перестало обновлять погоду пишет FS NOT FOUND и

NULL, не знаю как это вылечить, вчера полазил эту

ветку я предположил что у меня перестал работать

фсупик, хотя он зарегестрирован у меня я поставил

другой фсупик версии 3.70 зарегестрирован, включил

сим запустил фсатис вроде погода изменилась тока в

фсатис не показал код метар и буквально через минуту

опять все серое ничего не помогает! Пожалуйста

помогите мне очень хочу настроить эту прогу, но я в

этом не могу разобраться, может я не так его поставил,

помогите!

Share this post


Link to post
Share on other sites

KamPilot, помимо FSATIS установлен ли другой погодник, например Актив Скай с FSInn?

Edited by Aero-Sennin

Share this post


Link to post
Share on other sites

KamPilot, помимо FSATIS установлен ли другой погодник, например Актив Скай с FSInn?

Актив Скай не установлен, фсин стоит!

Share this post


Link to post
Share on other sites

Актив Скай не установлен, фсин стоит!

У меня нечто подобное было. Не знаю как "вылечил". Поинтересуйтесь у Phemmer

Share this post


Link to post
Share on other sites

Всех приветствую уважаемые единомышленники! Утилитка блеск!!
2 проги установленны по дефолту, с настройками и галками ВОПРОС?
Значит так, прежде всего уважаемому кодеру вопрос - выложите пожалуйста СКРИНАМИ (не поленитесь-уж) свои настройки FSAtis для 9-тки и для десятки! 
Аналогично, пожалуйста ждемс настроек по FSUIPC 3хх версии для 9-тки и, конечно 4хх версии для Mfsx.


p.s. сейчас AktiveSky всех версий прикрыли, у Вас должно появиться очень много единомышленников 

Jazz
Заранее при много благодарен земляк! 

Share this post


Link to post
Share on other sites

сейчас AktiveSky всех версий прикрыли

Об этом поподробнее пожалуйста. Это как это?

Share this post


Link to post
Share on other sites

Пиратские версии не загружают погоду.

Share this post


Link to post
Share on other sites

Земляки! Настоятельная просьба, пожалуйста не поленитесь и выложите фотками свои настройки в Fsatis и FSUIPC 4 под MFSX. 
Да, именно FSX (десятка) меня интересует.
С оф. сайта разработчика, только под девятку фотки есть по настройкам fsuipc третьей версии... :(

  • Upvote 1

Share this post


Link to post
Share on other sites

Пиратские версии не загружают погоду.

Аааа, ну так надо купить...))))

Share this post


Link to post
Share on other sites

Что-то тема того...

 

Свежая ошибка. Погоду обновляет и сразу же вылетает с ошибкой. Не знаю, как с ней бороться?  :ranting2:  

 

Сигнатура проблемы:
Имя события проблемы: BEX
Имя приложения: FSATIS.exe
Версия приложения: 1.0.0.1
Отметка времени приложения: 52b08915
Имя модуля с ошибкой: FSATIS.exe
Версия модуля с ошибкой: 1.0.0.1
Отметка времени модуля с ошибкой: 52b08915
Смещение исключения: 00038480
Код исключения: c000000d
Данные исключения: 00000000
Версия ОС: 6.1.7601.2.1.0.256.1
Код языка: 1049
Дополнительные сведения 1: ba72
Дополнительные сведения 2: ba72d1cd72fba2912fae7e97ce893b0a
Дополнительные сведения 3: c09d
Дополнительные сведения 4: c09d0876c9c8d762cc5821cdfffffb1e

 

 

Лог

 

05:54:09 init begin FSATIS version 13.12.17
05:54:09 options online wx steps http://usa-s1.vatsim.net/data/metar.php?id=
05:54:11 FSUIPC 3.750
05:54:14 wx init begin ===
05:54:14 XXXX 0mb
05:54:14 XXXX 0C -> -85C
05:54:15 wx cleared
05:54:17 closest station found USNN (FS=USRR)
05:54:18 received USNN 300630Z 18005MPS 2800 -SN OVC023 M11/M14 Q1010 TEMPO 1500 SN RMK QFE752 21420834
05:54:18 simulated wind ok
05:54:18 USRR STAB-3 BASE1000 LRATE13.043478 2477,4803,8,9,0,1,2,1,13
05:54:18 wx generated for USRR USNN 300630Z 18005MPS 2800 -SN OVC023 M11/M14 Q1010 TEMPO 1500 SN RMK QFE752 21420834
05:54:18 USRR 1010mb
05:54:19 USRR -11C -> -85C
05:54:20 KSC set to 34 based on wx
05:54:20 fs9 wx updated for USRR
05:54:20 wx init end ===
05:54:20 wx step_20 begin
05:54:20 surround update begin **
05:54:21 received

AVIATION DIGITAL DATA SERVICE (ADDS) OUTPUT PRODUCED BY METARS FORM (0654 UTC 30 NOVEMBER 2014)
FOUND AT HTTP://AVIATIONWEATHER.GOV/ADDS/METARS/
  USHH 300630Z 24006G09MPS 8000 -SN BLSN BKN014 OVC080 M04/M07 Q1008 TEMPO 1000 SN OVC003 RMK QFE752 24////30

 

 

Edited by Сириус_ВЛЭК

Share this post


Link to post
Share on other sites

Спасибо, посмотрю на досуге.

Share this post


Link to post
Share on other sites

Здравствуйте. Программой доволен! Использую в препаре. Скажите пожалуйста какие текстуры облаков надо для fsatis использовать в prepar3d? Хочу пушистые. 

Edited by Seno1000

Share this post


Link to post
Share on other sites

А есть ли возможность при использовании этой программы сгладить смену ветров? Настраивал через FSUIPC плавную смену, результата нет: ветер всё равно меняется мгновенно :(

Share this post


Link to post
Share on other sites

После долгих сомнений, решил поставить ФСАТИС(уж больно намаялся с ним ранее).Вроде сё ОК - погоду показывает, но не говорит. Войспаки в папке, в конфигураторе голос=1,Войс АТИС с галочкой. В чём дело-не пойму. Раньше говорил с удовольствием.......

Share this post


Link to post
Share on other sites

Добрый день!

Такую проблему обнаружил сегодня: код состояния полосы R01/000070 (METAR UUWW 071400Z 13002MPS 100V190 CAVOK 16/M04 Q1015 R01/000070 NOSIG) определяется как видимость 70 метров.

Share this post


Link to post
Share on other sites

Я его тоже поставил, правда как дополнение к FSrealWX Pro. Нравиться, как он, в зависимости от облачности, экран приглушает, ну и вроде как на коэффициент сцепления с ВПП влияет в зависимости от погоды, правда, в дождь на больших пока что садиться не приходилось, все как-то сухо в Карибском бассейне... 

Share this post


Link to post
Share on other sites

Добрый день!

Такую проблему обнаружил сегодня: код состояния полосы R01/000070 (METAR UUWW 071400Z 13002MPS 100V190 CAVOK 16/M04 Q1015 R01/000070 NOSIG) определяется как видимость 70 метров.

Добрый день!

Тоже стал замечать такое. Причем, сначала погода отображается правильно, через пару минут видимость резко падает (не до нуля), затем, спустя несколько минут вновь восстанавливается, затем опять падает и т.д.

Замечено только в UUDD и UUEE. Пробовал другие аэропорты (Пулково, Ростов на Дону, Псков, Сочи) все в порядке. В общем, замечено пока только в Московских а/п.

 

Лог:

 

 

07:18:54 init begin FSATIS version 13.12.17

07:18:54 options online wx   http://usa-s1.vatsim.net/data/metar.php?id=

07:18:55 FSUIPC 3.820

07:18:58 wx init begin ===

07:18:58 XXXX 0mb

07:18:58 XXXX 0C -> -85C

07:18:59 wx cleared

07:19:01 closest station found UUDD (FS=UUDD)

07:19:02 received UUDD 200700Z 02002MPS 340V060 9999 BKN020 19/15 Q1009 R88/010095 NOSIG

07:19:02 simulated wind ok

07:19:02 UUDD STAB-4 BASE3700 LRATE20.000000 2551,6751,6,9,1,2,0,0,20

07:19:02 wx generated for UUDD UUDD 200700Z 02002MPS 340V060 9999 BKN020 19/15 Q1009 R88/010095 NOSIG

07:19:02 UUDD 1009mb

07:19:02 UUDD 19C -> -85C

07:19:03 KSC set to 85 based on wx

07:19:03 fs9 wx updated for UUDD

07:19:03 wx init end ===

 

Edited by Q1W2E3

Share this post


Link to post
Share on other sites

Есть такие "гуляния" видимости и  во Внуково. Загружаешься - 9999, спустя некоторое время начинает падать на глазах, причем до нуля, при движении по перрону, опять восстанавливается.

http://i.imgur.com/jDhswEu.png

 

18:43:48 init begin FSATIS version 12.4.22

18:43:48 options online wx   noaa
18:43:50 FSUIPC 3.930
18:43:53 wx init begin ===
18:43:53 XXXX 0mb
18:43:53 XXXX 0C -> -85C
18:43:54 wx cleared
18:43:57 closest station found URKA (FS=URKK)
18:43:57 received URKA 251830Z 01002MPS CAVOK 24/22 Q1005 R22/010070 NOSIG RMK QFE749/0999 
18:43:57 simulated wind ok
18:43:57 URKK STAB-8 BASE3000 LRATE10.000000 clear
18:43:57 wx generated for URKK URKA 251830Z 01002MPS CAVOK 24/22 Q1005 R22/010070 NOSIG RMK QFE749/0999
18:43:57 URKK 1005mb
18:43:57 URKK 24C -> -85C
18:43:59 KSC set to 90 based on wx
18:43:59 fs9 wx updated for URKK
18:43:59 wx init end ===
18:59:24 load atis begin %%%
18:59:24 atis  
18:59:24 received URKA 251830Z 01002MPS CAVOK 24/22 Q1005 R22/010070 NOSIG RMK QFE749/0999 
18:59:24 KSC set to 90 based on atis
18:59:25 load atis end %%%
18:59:36 wx upd begin $$$
18:59:36 received URKA 251830Z 01002MPS CAVOK 24/22 Q1005 R22/010070 NOSIG RMK QFE749/0999 
18:59:36 wx upd end $$$
19:01:10 wx upd begin $$$
19:01:10 received URKA 251830Z 01002MPS CAVOK 24/22 Q1005 R22/010070 NOSIG RMK QFE749/0999 
19:01:10 wx upd end $$$
19:02:44 wx upd begin $$$
19:02:45 received URKA 251830Z 01002MPS CAVOK 24/22 Q1005 R22/010070 NOSIG RMK QFE749/0999 
19:02:45 wx upd end $$$
19:04:19 wx upd begin $$$
19:04:19 received URKA 251830Z 01002MPS CAVOK 24/22 Q1005 R22/010070 NOSIG RMK QFE749/0999 
19:04:19 wx upd end $$$
19:05:54 wx upd begin $$$
19:05:54 received URKA 251830Z 01002MPS CAVOK 24/22 Q1005 R22/010070 NOSIG RMK QFE749/0999 
19:05:54 wx upd end $$$
19:07:29 wx upd begin $$$
19:07:29 received URKA 251830Z 01002MPS CAVOK 24/22 Q1005 R22/010070 NOSIG RMK QFE749/0999 
19:07:29 wx upd end $$$
19:09:03 wx upd begin $$$
19:09:04 received URKA 251900Z VRB01MPS CAVOK 22/20 Q1005 R22/010070 NOSIG RMK QFE749/0999 
19:09:04 URKK STAB-8 BASE2800 LRATE10.000000 clear
19:09:04 wx generated for URKK URKA 251900Z VRB01MPS CAVOK 22/20 Q1005 R22/010070 NOSIG RMK QFE749/0999
19:09:04 URKK 1005mb
19:09:04 URKK 22C -> -85C
19:09:05 KSC set to 89 based on wx
19:09:05 fs9 wx updated for URKK
19:09:05 wx upd end $$$
19:11:06 wx upd begin $$$
19:11:06 received URKA 251900Z VRB01MPS CAVOK 22/20 Q1005 R22/010070 NOSIG RMK QFE749/0999 
19:11:06 wx upd end $$$
19:12:49 wx upd begin $$$
19:12:50 received URKA 251900Z VRB01MPS CAVOK 22/20 Q1005 R22/010070 NOSIG RMK QFE749/0999 
19:12:50 wx upd end $$$
19:14:50 wx upd begin $$$
19:14:50 received URKA 251900Z VRB01MPS CAVOK 22/20 Q1005 R22/010070 NOSIG RMK QFE749/0999 
19:14:50 wx upd end $$$
19:16:24 wx upd begin $$$
19:16:24 received URKA 251900Z VRB01MPS CAVOK 22/20 Q1005 R22/010070 NOSIG RMK QFE749/0999 
19:16:24 wx upd end $$$
19:18:43 wx upd begin $$$
19:18:43 received URKA 251900Z VRB01MPS CAVOK 22/20 Q1005 R22/010070 NOSIG RMK QFE749/0999 
19:18:43 wx upd end $$$
19:20:46 wx upd begin $$$
19:20:47 received URKA 251900Z VRB01MPS CAVOK 22/20 Q1005 R22/010070 NOSIG RMK QFE749/0999 
19:20:47 wx upd end $$$
19:22:33 wx upd begin $$$
19:22:33 received URKA 251900Z VRB01MPS CAVOK 22/20 Q1005 R22/010070 NOSIG RMK QFE749/0999 
19:22:33 wx upd end $$$
19:24:07 wx upd begin $$$
19:24:07 received URKA 251900Z VRB01MPS CAVOK 22/20 Q1005 R22/010070 NOSIG RMK QFE749/0999 
19:24:07 wx upd end $$$
19:25:42 wx upd begin $$$
19:25:42 received URKA 251900Z VRB01MPS CAVOK 22/20 Q1005 R22/010070 NOSIG RMK QFE749/0999 
19:25:42 wx upd end $$$
19:27:16 wx upd begin $$$
19:27:16 received URKA 251900Z VRB01MPS CAVOK 22/20 Q1005 R22/010070 NOSIG RMK QFE749/0999 
19:27:16 wx upd end $$$
19:28:51 wx upd begin $$$
19:28:52 received URKA 251900Z VRB01MPS CAVOK 22/20 Q1005 R22/010070 NOSIG RMK QFE749/0999 
19:28:52 wx upd end $$$
19:30:26 wx upd begin $$$
19:30:26 received URKA 251900Z VRB01MPS CAVOK 22/20 Q1005 R22/010070 NOSIG RMK QFE749/0999 
19:30:26 wx upd end $$$
19:32:00 wx upd begin $$$
19:32:00 received URKA 251900Z VRB01MPS CAVOK 22/20 Q1005 R22/010070 NOSIG RMK QFE749/0999 
19:32:00 wx upd end $$$
19:33:34 wx upd begin $$$
19:33:34 received URKA 251900Z VRB01MPS CAVOK 22/20 Q1005 R22/010070 NOSIG RMK QFE749/0999 
19:33:34 wx upd end $$$
19:34:37 closest station found URKK (FS=URKK)
19:34:38 received URKK 251900Z 06005MPS CAVOK 28/13 Q1005 R05C/CLRD70 NOSIG RMK QFE750 
19:34:38 simulated wind ok
19:34:38 URKK STAB-8 BASE3400 LRATE10.000000 clear
19:34:38 wx generated for URKK URKK 251900Z 06005MPS CAVOK 28/13 Q1005 R05C/CLRD70 NOSIG RMK QFE750
19:34:38 URKK 1005mb
19:34:38 URKK 28C -> -85C
19:34:39 KSC set to 79 based on wx
19:34:39 fs9 wx updated for URKK
19:36:07 closest station found URRR (FS=URRR)
19:36:07 received URRR 251900Z 08007MPS P8000 NSC 30/10 Q1009 R04/CLRD70 NOSIG RMK QFE750/1000 
19:36:07 simulated wind ok
19:36:07 URRR STAB-4 BASE4800 LRATE10.000000 3553,4153,1,9,0,2,0,0,10
19:36:07 wx generated for URRR URRR 251900Z 08007MPS P8000 NSC 30/10 Q1009 R04/CLRD70 NOSIG RMK QFE750/1000
19:36:07 URRR 1009mb
19:36:07 URRR 30C -> -85C
19:36:08 KSC set to 75 based on wx
19:36:08 fs9 wx updated for URRR
19:37:42 wx upd begin $$$
19:37:42 received URRR 251900Z 08007MPS P8000 NSC 30/10 Q1009 R04/CLRD70 NOSIG RMK QFE750/1000 
19:37:42 wx upd end $$$
19:39:16 wx upd begin $$$
19:39:16 received URRR 251930Z 08007MPS P8000 NSC 30/10 Q1009 R04/CLRD70 NOSIG RMK QFE750/1000 
19:39:16 URRR STAB-4 BASE4800 LRATE10.000000 3553,4153,1,9,0,0,0,0,10
19:39:16 wx generated for URRR URRR 251930Z 08007MPS P8000 NSC 30/10 Q1009 R04/CLRD70 NOSIG RMK QFE750/1000
19:39:16 URRR 1009mb
19:39:16 URRR 30C -> -85C
19:39:18 KSC set to 75 based on wx
19:39:18 fs9 wx updated for URRR
19:39:18 wx upd end $$$
19:40:52 wx upd begin $$$
19:40:53 received URRR 251930Z 08007MPS P8000 NSC 30/10 Q1009 R04/CLRD70 NOSIG RMK QFE750/1000 
19:40:53 wx upd end $$$
19:42:27 wx upd begin $$$
19:42:27 received URRR 251930Z 08007MPS P8000 NSC 30/10 Q1009 R04/CLRD70 NOSIG RMK QFE750/1000 
19:42:27 wx upd end $$$
19:44:01 wx upd begin $$$
19:44:01 received URRR 251930Z 08007MPS P8000 NSC 30/10 Q1009 R04/CLRD70 NOSIG RMK QFE750/1000 
19:44:01 wx upd end $$$
19:45:35 wx upd begin $$$
19:45:36 received URRR 251930Z 08007MPS P8000 NSC 30/10 Q1009 R04/CLRD70 NOSIG RMK QFE750/1000 
19:45:36 wx upd end $$$
19:47:10 wx upd begin $$$
19:47:10 received URRR 251930Z 08007MPS P8000 NSC 30/10 Q1009 R04/CLRD70 NOSIG RMK QFE750/1000 
19:47:10 wx upd end $$$
19:48:47 wx upd begin $$$
19:48:47 received URRR 251930Z 08007MPS P8000 NSC 30/10 Q1009 R04/CLRD70 NOSIG RMK QFE750/1000 
19:48:47 wx upd end $$$
19:50:21 wx upd begin $$$
19:50:21 received URRR 251930Z 08007MPS P8000 NSC 30/10 Q1009 R04/CLRD70 NOSIG RMK QFE750/1000 
19:50:21 wx upd end $$$
19:51:56 wx upd begin $$$
19:51:56 received URRR 251930Z 08007MPS P8000 NSC 30/10 Q1009 R04/CLRD70 NOSIG RMK QFE750/1000 
19:51:56 wx upd end $$$
19:53:00 closest station found UKCW (FS=UKCC)
19:53:00 received UKCW 080100Z 00000MPS CAVOK 20/08 Q1015 0909//70 NOSIG 
19:53:00 simulated wind ok
19:53:00 UKCC STAB2 BASE4400 LRATE10.000000 clear
19:53:00 wx generated for UKCC UKCW 080100Z 00000MPS CAVOK 20/08 Q1015 0909//70 NOSIG
19:53:00 UKCC 1015mb
19:53:00 UKCC 20C -> -85C
19:53:02 KSC set to 70 based on wx
19:53:02 fs9 wx updated for UKCC
19:54:35 wx upd begin $$$
19:54:35 received UKCW 080100Z 00000MPS CAVOK 20/08 Q1015 0909//70 NOSIG 
19:54:35 wx upd end $$$
19:56:10 wx upd begin $$$
19:56:10 received UKCW 080100Z 00000MPS CAVOK 20/08 Q1015 0909//70 NOSIG 
19:56:10 wx upd end $$$
19:57:44 wx upd begin $$$
19:57:44 received UKCW 080100Z 00000MPS CAVOK 20/08 Q1015 0909//70 NOSIG 
19:57:44 wx upd end $$$
19:59:19 wx upd begin $$$
19:59:19 received UKCW 080100Z 00000MPS CAVOK 20/08 Q1015 0909//70 NOSIG 
19:59:19 wx upd end $$$
20:00:53 wx upd begin $$$
20:00:53 received UKCW 080100Z 00000MPS CAVOK 20/08 Q1015 0909//70 NOSIG 
20:00:53 wx upd end $$$
20:02:28 wx upd begin $$$
20:02:28 received UKCW 080100Z 00000MPS CAVOK 20/08 Q1015 0909//70 NOSIG 
20:02:28 wx upd end $$$
20:04:03 wx upd begin $$$
20:04:03 received UKCW 080100Z 00000MPS CAVOK 20/08 Q1015 0909//70 NOSIG 
20:04:03 wx upd end $$$
20:05:37 wx upd begin $$$
20:05:37 received UKCW 080100Z 00000MPS CAVOK 20/08 Q1015 0909//70 NOSIG 
20:05:37 wx upd end $$$
20:07:11 wx upd begin $$$
20:07:12 received UKCW 080100Z 00000MPS CAVOK 20/08 Q1015 0909//70 NOSIG 
20:07:12 wx upd end $$$
20:08:46 wx upd begin $$$
20:08:46 received UKCW 080100Z 00000MPS CAVOK 20/08 Q1015 0909//70 NOSIG 
20:08:46 wx upd end $$$
20:10:20 wx upd begin $$$
20:10:20 received UKCW 080100Z 00000MPS CAVOK 20/08 Q1015 0909//70 NOSIG 
20:10:20 wx upd end $$$
20:10:46 closest station found UUOO (FS=UUOO)
20:10:46 received UUOO 252000Z 11002MPS CAVOK 21/17 Q1014 R12/090070 NOSIG RMK QFE747 
20:10:46 simulated wind ok
20:10:46 UUOO STAB1 BASE4800 LRATE10.000000 clear
20:10:46 wx generated for UUOO UUOO 252000Z 11002MPS CAVOK 21/17 Q1014 R12/090070 NOSIG RMK QFE747
20:10:46 UUOO 1014mb
20:10:46 UUOO 21C -> -85C
20:10:48 KSC set to 86 based on wx
20:10:48 fs9 wx updated for UUOO
20:12:34 wx upd begin $$$
20:12:34 received UUOO 252000Z 11002MPS CAVOK 21/17 Q1014 R12/090070 NOSIG RMK QFE747 
20:12:34 wx upd end $$$
20:14:35 wx upd begin $$$
20:14:35 received UUOO 252000Z 11002MPS CAVOK 21/17 Q1014 R12/090070 NOSIG RMK QFE747 
20:14:35 wx upd end $$$
20:16:09 wx upd begin $$$
20:16:09 received UUOO 252000Z 11002MPS CAVOK 21/17 Q1014 R12/090070 NOSIG RMK QFE747 
20:16:09 wx upd end $$$
20:17:43 wx upd begin $$$
20:17:43 received UUOO 252000Z 11002MPS CAVOK 21/17 Q1014 R12/090070 NOSIG RMK QFE747 
20:17:43 wx upd end $$$
20:19:19 wx upd begin $$$
20:19:19 received UUOO 252000Z 11002MPS CAVOK 21/17 Q1014 R12/090070 NOSIG RMK QFE747 
20:19:19 wx upd end $$$
20:20:53 wx upd begin $$$
20:20:53 received UUOO 252000Z 11002MPS CAVOK 21/17 Q1014 R12/090070 NOSIG RMK QFE747 
20:20:53 wx upd end $$$
20:22:27 wx upd begin $$$
20:22:27 received UUOO 252000Z 11002MPS CAVOK 21/17 Q1014 R12/090070 NOSIG RMK QFE747 
20:22:27 wx upd end $$$
20:24:01 wx upd begin $$$
20:24:02 received UUOO 252000Z 11002MPS CAVOK 21/17 Q1014 R12/090070 NOSIG RMK QFE747 
20:24:02 wx upd end $$$
20:25:36 wx upd begin $$$
20:25:36 received UUOO 252000Z 11002MPS CAVOK 21/17 Q1014 R12/090070 NOSIG RMK QFE747 
20:25:36 wx upd end $$$
20:27:10 wx upd begin $$$
20:27:11 received UUOO 252000Z 11002MPS CAVOK 21/17 Q1014 R12/090070 NOSIG RMK QFE747 
20:27:11 wx upd end $$$
20:28:45 wx upd begin $$$
20:28:45 received UUOO 252000Z 11002MPS CAVOK 21/17 Q1014 R12/090070 NOSIG RMK QFE747 
20:28:45 wx upd end $$$
20:30:19 wx upd begin $$$
20:30:20 received UUOO 252000Z 11002MPS CAVOK 21/17 Q1014 R12/090070 NOSIG RMK QFE747 
20:30:20 wx upd end $$$
20:31:55 wx upd begin $$$
20:31:55 received UUOO 252000Z 11002MPS CAVOK 21/17 Q1014 R12/090070 NOSIG RMK QFE747 
20:31:55 wx upd end $$$
20:33:30 wx upd begin $$$
20:33:31 received UUOO 252000Z 11002MPS CAVOK 21/17 Q1014 R12/090070 NOSIG RMK QFE747 
20:33:31 wx upd end $$$
20:35:05 wx upd begin $$$
20:35:05 received UUOO 252000Z 11002MPS CAVOK 21/17 Q1014 R12/090070 NOSIG RMK QFE747 
20:35:05 wx upd end $$$
20:36:41 wx upd begin $$$
20:36:42 received UUOO 252000Z 11002MPS CAVOK 21/17 Q1014 R12/090070 NOSIG RMK QFE747 
20:36:42 wx upd end $$$
20:38:16 wx upd begin $$$
20:38:16 received UUOO 252000Z 11002MPS CAVOK 21/17 Q1014 R12/090070 NOSIG RMK QFE747 
20:38:16 wx upd end $$$
20:39:52 wx upd begin $$$
20:39:53 received UUOO 252030Z 08003MPS CAVOK 21/17 Q1014 R12/090070 NOSIG RMK QFE747 
20:39:53 UUOO STAB1 BASE4800 LRATE10.000000 clear
20:39:53 wx generated for UUOO UUOO 252030Z 08003MPS CAVOK 21/17 Q1014 R12/090070 NOSIG RMK QFE747
20:39:53 UUOO 1014mb
20:39:53 UUOO 21C -> -85C
20:39:54 KSC set to 86 based on wx
20:39:54 fs9 wx updated for UUOO
20:39:54 wx upd end $$$
20:41:28 wx upd begin $$$
20:41:28 received UUOO 252030Z 08003MPS CAVOK 21/17 Q1014 R12/090070 NOSIG RMK QFE747 
20:41:28 wx upd end $$$
20:41:41 closest station found UUDD (FS=UUDD)
20:41:41 received UUDD 252030Z 05002MPS 360V090 CAVOK 17/12 Q1016 R88/010095 NOSIG 
20:41:41 simulated wind ok
20:41:41 UUDD STAB3 BASE3800 LRATE10.000000 clear
20:41:41 wx generated for UUDD UUDD 252030Z 05002MPS 360V090 CAVOK 17/12 Q1016 R88/010095 NOSIG
20:41:41 UUDD 1016mb
20:41:41 UUDD 17C -> -85C
20:41:42 KSC set to 83 based on wx
20:41:42 fs9 wx updated for UUDD
20:42:07 load atis begin %%%
20:42:07 atis  
20:42:07 received UUWW 252030Z 00000MPS CAVOK 16/11 Q1016 R06/000070 NOSIG 
20:42:07 KSC set to 83 based on atis
20:42:08 load atis end %%%
20:43:17 wx upd begin $$$
20:43:17 received UUDD 252030Z 05002MPS 360V090 CAVOK 17/12 Q1016 R88/010095 NOSIG 
20:43:17 wx upd end $$$
20:44:52 wx upd begin $$$
20:44:52 received UUDD 252030Z 05002MPS 360V090 CAVOK 17/12 Q1016 R88/010095 NOSIG 
20:44:52 wx upd end $$$
20:46:26 wx upd begin $$$
20:46:27 received UUDD 252030Z 05002MPS 360V090 CAVOK 17/12 Q1016 R88/010095 NOSIG 
20:46:27 wx upd end $$$
20:48:01 wx upd begin $$$
20:48:02 received UUDD 252030Z 05002MPS 360V090 CAVOK 17/12 Q1016 R88/010095 NOSIG 
20:48:02 wx upd end $$$
20:49:36 wx upd begin $$$
20:49:36 received UUDD 252030Z 05002MPS 360V090 CAVOK 17/12 Q1016 R88/010095 NOSIG 
20:49:36 wx upd end $$$
20:51:10 wx upd begin $$$
20:51:10 received UUDD 252030Z 05002MPS 360V090 CAVOK 17/12 Q1016 R88/010095 NOSIG 
20:51:10 wx upd end $$$
20:52:45 wx upd begin $$$
20:52:45 received UUDD 252030Z 05002MPS 360V090 CAVOK 17/12 Q1016 R88/010095 NOSIG 
20:52:45 wx upd end $$$
20:54:19 wx upd begin $$$
20:54:20 received UUDD 252030Z 05002MPS 360V090 CAVOK 17/12 Q1016 R88/010095 NOSIG 
20:54:20 wx upd end $$$
20:55:54 wx upd begin $$$
20:55:54 received UUDD 252030Z 05002MPS 360V090 CAVOK 17/12 Q1016 R88/010095 NOSIG 
20:55:54 wx upd end $$$
20:57:30 wx upd begin $$$
20:57:30 received UUDD 252030Z 05002MPS 360V090 CAVOK 17/12 Q1016 R88/010095 NOSIG 
20:57:30 wx upd end $$$
20:59:06 wx upd begin $$$
20:59:06 received UUDD 252030Z 05002MPS 360V090 CAVOK 17/12 Q1016 R88/010095 NOSIG 
20:59:06 wx upd end $$$
21:00:41 wx upd begin $$$
21:00:41 received UUDD 252030Z 05002MPS 360V090 CAVOK 17/12 Q1016 R88/010095 NOSIG 
21:00:41 wx upd end $$$
21:01:51 closest station found UUWW (FS=UUWW)
21:01:51 received UUWW 252030Z 00000MPS CAVOK 16/11 Q1016 R06/000070 NOSIG 
21:01:51 simulated wind ok
21:01:51 UUWW STAB3 BASE3700 LRATE10.000000 clear
21:01:51 wx generated for UUWW UUWW 252030Z 00000MPS CAVOK 16/11 Q1016 R06/000070 NOSIG
21:01:51 UUWW 1016mb
21:01:51 UUWW 16C -> -85C
21:01:53 KSC set to 83 based on wx
21:01:53 fs9 wx updated for UUWW
21:02:52 load atis begin %%%
21:02:52 atis  
21:02:52 received UUWW 252030Z 00000MPS CAVOK 16/11 Q1016 R06/000070 NOSIG 
21:02:52 KSC set to 83 based on atis
21:02:53 load atis end %%%
21:03:59 wx upd begin $$$
21:03:59 received UUWW 252030Z 00000MPS CAVOK 16/11 Q1016 R06/000070 NOSIG 
21:03:59 wx upd end $$$
21:06:02 wx upd begin $$$
21:06:02 received UUWW 252030Z 00000MPS CAVOK 16/11 Q1016 R06/000070 NOSIG 
21:06:02 wx upd end $$$
21:08:46 wx upd begin $$$
21:08:46 received UUWW 252100Z VRB01MPS CAVOK 16/09 Q1016 R06/000070 NOSIG 
21:08:46 UUWW STAB3 BASE3700 LRATE10.000000 clear
21:08:46 wx generated for UUWW UUWW 252100Z VRB01MPS CAVOK 16/09 Q1016 R06/000070 NOSIG
21:08:46 UUWW 1016mb
21:08:46 UUWW 16C -> -85C
21:08:48 KSC set to 81 based on wx
21:08:48 fs9 wx updated for UUWW
21:08:48 wx upd end $$$
21:10:58 wx upd begin $$$
21:10:58 received UUWW 252100Z VRB01MPS CAVOK 16/09 Q1016 R06/000070 NOSIG 
21:10:58 wx upd end $$$
21:13:10 wx upd begin $$$
21:13:10 received UUWW 252100Z VRB01MPS CAVOK 16/09 Q1016 R06/000070 NOSIG 
21:13:10 wx upd end $$$
21:14:52 wx upd begin $$$
21:14:52 received UUWW 252100Z VRB01MPS CAVOK 16/09 Q1016 R06/000070 NOSIG 
21:14:52 wx upd end $$$
21:17:02 wx upd begin $$$
21:17:02 received UUWW 252100Z VRB01MPS CAVOK 16/09 Q1016 R06/000070 NOSIG 
21:17:02 wx upd end $$$
21:18:41 wx upd begin $$$
21:18:41 received UUWW 252100Z VRB01MPS CAVOK 16/09 Q1016 R06/000070 NOSIG 
21:18:41 wx upd end $$$
21:20:15 wx upd begin $$$
21:20:16 received UUWW 252100Z VRB01MPS CAVOK 16/09 Q1016 R06/000070 NOSIG 
21:20:16 wx upd end $$$
21:21:50 wx upd begin $$$
21:21:50 received UUWW 252100Z VRB01MPS CAVOK 16/09 Q1016 R06/000070 NOSIG 
21:21:50 wx upd end $$$
21:23:25 wx upd begin $$$
21:23:25 received UUWW 252100Z VRB01MPS CAVOK 16/09 Q1016 R06/000070 NOSIG 
21:23:25 wx upd end $$$
21:24:59 wx upd begin $$$
21:24:59 received UUWW 252100Z VRB01MPS CAVOK 16/09 Q1016 R06/000070 NOSIG 
21:24:59 wx upd end $$$
21:26:57 wx upd begin $$$
21:26:57 received UUWW 252100Z VRB01MPS CAVOK 16/09 Q1016 R06/000070 NOSIG 
21:26:57 wx upd end $$$
21:28:41 wx upd begin $$$
21:28:42 received UUWW 252100Z VRB01MPS CAVOK 16/09 Q1016 R06/000070 NOSIG 
21:28:42 wx upd end $$$
21:30:18 wx upd begin $$$
21:30:19 received UUWW 252100Z VRB01MPS CAVOK 16/09 Q1016 R06/000070 NOSIG 
21:30:19 wx upd end $$$
21:31:58 wx upd begin $$$
21:31:58 received UUWW 252100Z VRB01MPS CAVOK 16/09 Q1016 R06/000070 NOSIG 

21:31:58 wx upd end $$$[/spoiler]

 
-------------------------------------------------------------------------------------------------------------------

и вот ещё один:
 

16:50:17 init begin FSATIS version 12.4.22

16:50:17 options online wx   http://usa-s1.vatsim.net/data/metar.php?id=
16:50:19 FSUIPC 3.930
16:50:22 wx init begin ===
16:50:22 XXXX 0mb
16:50:22 XXXX 0C -> -85C
16:50:23 wx cleared
16:50:25 closest station found UUWW (FS=UUWW)
16:50:27 received UUWW 041630Z 35004MPS CAVOK 22/09 Q1020 R01/000070 NOSIG 
16:50:27 simulated wind ok
16:50:27 UUWW STAB7 BASE3100 LRATE10.000000 clear
16:50:27 wx generated for UUWW UUWW 041630Z 35004MPS CAVOK 22/09 Q1020 R01/000070 NOSIG
16:50:27 UUWW 1020mb
16:50:27 UUWW 22C -> -85C
16:50:28 KSC set to 78 based on wx
16:50:28 fs9 wx updated for UUWW
16:50:28 wx init end ===
16:50:29 load atis begin %%%
16:50:29 atis UUDD 041630Z 31003MPS CAVOK 20/11 Q1020 R88/010095 NOSIG 
16:50:29 received UUDD 041630Z 31003MPS CAVOK 20/11 Q1020 R88/010095 NOSIG 
16:50:29 KSC set to 78 based on atis
16:50:30 load atis end %%%
16:53:02 wx upd begin $$$
16:53:02 received UUWW 041630Z 35004MPS CAVOK 22/09 Q1020 R01/000070 NOSIG 
16:53:02 wx upd end $$$
16:54:45 wx upd begin $$$
16:54:46 received UUWW 041630Z 35004MPS CAVOK 22/09 Q1020 R01/000070 NOSIG 
16:54:46 wx upd end $$$
16:56:36 wx upd begin $$$
16:56:36 received UUWW 041630Z 35004MPS CAVOK 22/09 Q1020 R01/000070 NOSIG 
16:56:36 wx upd end $$$
16:58:20 wx upd begin $$$
16:58:20 received UUWW 041630Z 35004MPS CAVOK 22/09 Q1020 R01/000070 NOSIG 
16:58:20 wx upd end $$$
17:00:11 wx upd begin $$$
17:00:12 received UUWW 041630Z 35004MPS CAVOK 22/09 Q1020 R01/000070 NOSIG 
17:00:12 wx upd end $$$
17:02:02 wx upd begin $$$
17:02:02 received UUWW 041630Z 35004MPS CAVOK 22/09 Q1020 R01/000070 NOSIG 
17:02:02 wx upd end $$$
17:03:45 wx upd begin $$$
17:03:45 received UUWW 041630Z 35004MPS CAVOK 22/09 Q1020 R01/000070 NOSIG 
17:03:45 wx upd end $$$
17:05:19 wx upd begin $$$
17:05:20 received UUWW 041630Z 35004MPS CAVOK 22/09 Q1020 R01/000070 NOSIG 
17:05:20 wx upd end $$$
17:06:54 wx upd begin $$$
17:06:55 received UUWW 041630Z 35004MPS CAVOK 22/09 Q1020 R01/000070 NOSIG 
17:06:55 wx upd end $$$
17:08:29 wx upd begin $$$
17:08:29 received UUWW 041630Z 35004MPS CAVOK 22/09 Q1020 R01/000070 NOSIG 
17:08:29 wx upd end $$$
17:10:03 wx upd begin $$$
17:10:04 received UUWW 041700Z 35003MPS CAVOK 21/09 Q1020 R01/000070 NOSIG 
17:10:04 UUWW STAB7 BASE3000 LRATE10.000000 clear
17:10:04 wx generated for UUWW UUWW 041700Z 35003MPS CAVOK 21/09 Q1020 R01/000070 NOSIG
17:10:04 UUWW 1020mb
17:10:04 UUWW 21C -> -85C
17:10:05 KSC set to 78 based on wx
17:10:05 fs9 wx updated for UUWW
17:10:05 wx upd end $$$
17:11:40 wx upd begin $$$
17:11:40 received UUWW 041700Z 35003MPS CAVOK 21/09 Q1020 R01/000070 NOSIG 
17:11:40 wx upd end $$$
17:13:15 wx upd begin $$$
17:13:15 received UUWW 041700Z 35003MPS CAVOK 21/09 Q1020 R01/000070 NOSIG 
17:13:15 wx upd end $$$
17:14:49 wx upd begin $$$
17:14:50 received UUWW 041700Z 35003MPS CAVOK 21/09 Q1020 R01/000070 NOSIG 
17:14:50 wx upd end $$$
17:16:29 wx upd begin $$$
17:16:30 received UUWW 041700Z 35003MPS CAVOK 21/09 Q1020 R01/000070 NOSIG 
17:16:30 wx upd end $$$
17:18:04 wx upd begin $$$
17:18:05 received UUWW 041700Z 35003MPS CAVOK 21/09 Q1020 R01/000070 NOSIG 
17:18:05 wx upd end $$$
17:20:34 wx upd begin $$$
17:20:34 received UUWW 041700Z 35003MPS CAVOK 21/09 Q1020 R01/000070 NOSIG 
17:20:34 wx upd end $$$
17:23:44 wx upd begin $$$
17:23:45 received UUWW 041700Z 35003MPS CAVOK 21/09 Q1020 R01/000070 NOSIG 
17:23:45 wx upd end $$$
17:25:52 wx upd begin $$$
17:25:53 received UUWW 041700Z 35003MPS CAVOK 21/09 Q1020 R01/000070 NOSIG 
17:25:53 wx upd end $$$
17:28:25 wx upd begin $$$
17:28:25 received UUWW 041700Z 35003MPS CAVOK 21/09 Q1020 R01/000070 NOSIG 
17:28:25 wx upd end $$$
17:30:12 wx upd begin $$$
17:30:13 received UUWW 041700Z 35003MPS CAVOK 21/09 Q1020 R01/000070 NOSIG 
17:30:13 wx upd end $$$
17:31:47 wx upd begin $$$
17:31:48 received UUWW 041700Z 35003MPS CAVOK 21/09 Q1020 R01/000070 NOSIG 
17:31:48 wx upd end $$$
17:33:22 wx upd begin $$$
17:33:22 received UUWW 041700Z 35003MPS CAVOK 21/09 Q1020 R01/000070 NOSIG 
17:33:22 wx upd end $$$
17:34:56 wx upd begin $$$
17:34:56 received UUWW 041700Z 35003MPS CAVOK 21/09 Q1020 R01/000070 NOSIG 
17:34:56 wx upd end $$$
17:35:16 closest station found UUEE (FS=UUEE)
17:35:16 received UUEE 041700Z 33002MPS CAVOK 19/10 Q1020 R25R/000062 R25L/000062 NOSIG 
17:35:16 simulated wind ok
17:35:16 UUEE STAB7 BASE2800 LRATE10.000000 clear
17:35:16 wx generated for UUEE UUEE 041700Z 33002MPS CAVOK 19/10 Q1020 R25R/000062 R25L/000062 NOSIG
17:35:16 UUEE 1020mb
17:35:16 UUEE 19C -> -85C
17:35:18 KSC set to 80 based on wx
17:35:18 fs9 wx updated for UUEE
17:36:51 wx upd begin $$$
17:36:52 received UUEE 041700Z 33002MPS CAVOK 19/10 Q1020 R25R/000062 R25L/000062 NOSIG 
17:36:52 wx upd end $$$
17:38:26 wx upd begin $$$
17:38:26 received UUEE 041700Z 33002MPS CAVOK 19/10 Q1020 R25R/000062 R25L/000062 NOSIG 
17:38:26 wx upd end $$$
17:39:29 closest station found UUEM (FS=UUEM)
17:39:29 received UUEM. 
17:39:29 No wx data for UUEM
17:39:35 closest station found UUEE (FS=UUEE)
17:39:36 received UUEE 041730Z 33002MPS CAVOK 18/10 Q1020 R25R/000062 R25L/000062 NOSIG 
17:39:36 simulated wind ok
17:39:36 UUEE STAB7 BASE2700 LRATE10.000000 clear
17:39:36 wx generated for UUEE UUEE 041730Z 33002MPS CAVOK 18/10 Q1020 R25R/000062 R25L/000062 NOSIG
17:39:36 UUEE 1020mb
17:39:36 UUEE 18C -> -85C
17:39:37 KSC set to 81 based on wx
17:39:37 fs9 wx updated for UUEE
17:41:11 wx upd begin $$$
17:41:12 received UUEE 041730Z 33002MPS CAVOK 18/10 Q1020 R25R/000062 R25L/000062 NOSIG 
17:41:12 wx upd end $$$
17:42:46 wx upd begin $$$
17:42:46 received UUEE 041730Z 33002MPS CAVOK 18/10 Q1020 R25R/000062 R25L/000062 NOSIG 
17:42:46 wx upd end $$$
17:44:20 wx upd begin $$$
17:44:20 received UUEE 041730Z 33002MPS CAVOK 18/10 Q1020 R25R/000062 R25L/000062 NOSIG 
17:44:20 wx upd end $$$
17:45:54 wx upd begin $$$
17:45:55 received UUEE 041730Z 33002MPS CAVOK 18/10 Q1020 R25R/000062 R25L/000062 NOSIG 
17:45:55 wx upd end $$$
17:47:29 wx upd begin $$$
17:47:29 received UUEE 041730Z 33002MPS CAVOK 18/10 Q1020 R25R/000062 R25L/000062 NOSIG 
17:47:29 wx upd end $$$
17:49:03 wx upd begin $$$
17:49:04 received UUEE 041730Z 33002MPS CAVOK 18/10 Q1020 R25R/000062 R25L/000062 NOSIG 
17:49:04 wx upd end $$$
17:50:37 wx upd begin $$$
17:50:38 received UUEE 041730Z 33002MPS CAVOK 18/10 Q1020 R25R/000062 R25L/000062 NOSIG 
17:50:38 wx upd end $$$
17:52:13 wx upd begin $$$
17:52:14 received UUEE 041730Z 33002MPS CAVOK 18/10 Q1020 R25R/000062 R25L/000062 NOSIG 
17:52:14 wx upd end $$$
17:53:48 wx upd begin $$$
17:53:48 received UUEE 041730Z 33002MPS CAVOK 18/10 Q1020 R25R/000062 R25L/000062 NOSIG 
17:53:48 wx upd end $$$
17:55:22 wx upd begin $$$
17:55:22 received UUEE 041730Z 33002MPS CAVOK 18/10 Q1020 R25R/000062 R25L/000062 NOSIG 
17:55:22 wx upd end $$$
17:56:57 wx upd begin $$$
17:56:57 received UUEE 041730Z 33002MPS CAVOK 18/10 Q1020 R25R/000062 R25L/000062 NOSIG 
17:56:57 wx upd end $$$
17:57:54 closest station found ULOL (FS=ULOL)
17:57:54 received ULOL. 
17:57:54 No wx data for ULOL
17:58:00 closest station found UUEE (FS=UUEE)
17:58:01 received UUEE 041730Z 33002MPS CAVOK 18/10 Q1020 R25R/000062 R25L/000062 NOSIG 
17:58:01 simulated wind ok
17:58:01 UUEE STAB7 BASE2700 LRATE10.000000 clear
17:58:01 wx generated for UUEE UUEE 041730Z 33002MPS CAVOK 18/10 Q1020 R25R/000062 R25L/000062 NOSIG
17:58:01 UUEE 1020mb
17:58:01 UUEE 18C -> -85C
17:58:02 KSC set to 81 based on wx
17:58:02 fs9 wx updated for UUEE
17:58:21 closest station found ULLI (FS=ULLI)
17:58:21 received ULLI 041730Z 31004MPS 9999 FEW047 17/12 Q1021 R28L/090070 NOSIG 
17:58:21 simulated wind ok
17:58:21 ULLI STAB8 BASE2300 LRATE10.638298 4779,8344,1,8,0,1,0,0,10
17:58:21 wx generated for ULLI ULLI 041730Z 31004MPS 9999 FEW047 17/12 Q1021 R28L/090070 NOSIG
17:58:21 ULLI 1021mb
17:58:21 ULLI 17C -> -85C
17:58:23 KSC set to 83 based on wx
17:58:23 fs9 wx updated for ULLI
17:59:57 wx upd begin $$$
17:59:57 received ULLI 041730Z 31004MPS 9999 FEW047 17/12 Q1021 R28L/090070 NOSIG 
17:59:57 wx upd end $$$
18:01:31 wx upd begin $$$
18:01:31 received ULLI 041730Z 31004MPS 9999 FEW047 17/12 Q1021 R28L/090070 NOSIG 
18:01:31 wx upd end $$$
18:03:06 wx upd begin $$$
18:03:06 received ULLI 041730Z 31004MPS 9999 FEW047 17/12 Q1021 R28L/090070 NOSIG 
18:03:06 wx upd end $$$
18:04:40 wx upd begin $$$
18:04:40 received ULLI 041730Z 31004MPS 9999 FEW047 17/12 Q1021 R28L/090070 NOSIG 
18:04:40 wx upd end $$$
18:06:15 wx upd begin $$$
18:06:16 received ULLI 041730Z 31004MPS 9999 FEW047 17/12 Q1021 R28L/090070 NOSIG 
18:06:16 wx upd end $$$
18:07:50 wx upd begin $$$
18:07:51 received ULLI 041730Z 31004MPS 9999 FEW047 17/12 Q1021 R28L/090070 NOSIG 
18:07:51 wx upd end $$$
18:09:25 wx upd begin $$$
18:09:25 received ULLI 041800Z 28003MPS 9999 FEW050 16/12 Q1021 R28L/090070 NOSIG 
18:09:25 ULLI STAB8 BASE2200 LRATE10.000000 5079,8529,2,8,0,0,0,0,10
18:09:25 wx generated for ULLI ULLI 041800Z 28003MPS 9999 FEW050 16/12 Q1021 R28L/090070 NOSIG
18:09:25 ULLI 1021mb
18:09:25 ULLI 16C -> -85C
18:09:27 KSC set to 84 based on wx
18:09:27 fs9 wx updated for ULLI
18:09:27 wx upd end $$$
18:11:01 wx upd begin $$$
18:11:01 received ULLI 041800Z 28003MPS 9999 FEW050 16/12 Q1021 R28L/090070 NOSIG 
18:11:01 wx upd end $$$
18:12:37 wx upd begin $$$
18:12:37 received ULLI 041800Z 28003MPS 9999 FEW050 16/12 Q1021 R28L/090070 NOSIG 
18:12:37 wx upd end $$$
18:14:12 wx upd begin $$$
18:14:12 received ULLI 041800Z 28003MPS 9999 FEW050 16/12 Q1021 R28L/090070 NOSIG 
18:14:12 wx upd end $$$
18:15:46 wx upd begin $$$
18:15:46 received ULLI 041800Z 28003MPS 9999 FEW050 16/12 Q1021 R28L/090070 NOSIG 
18:15:46 wx upd end $$$
18:16:38 load atis begin %%%
18:16:38 atis ULLI 041800Z 28003MPS 9999 FEW050 16/12 Q1021 R28L/090070 NOSIG 
18:16:38 received ULLI 041800Z 28003MPS 9999 FEW050 16/12 Q1021 R28L/090070 NOSIG 
18:16:38 KSC set to 84 based on atis
18:16:39 load atis end %%%
18:17:22 wx upd begin $$$
18:17:23 received ULLI 041800Z 28003MPS 9999 FEW050 16/12 Q1021 R28L/090070 NOSIG 
18:17:23 wx upd end $$$
18:18:57 wx upd begin $$$
18:18:57 received ULLI 041800Z 28003MPS 9999 FEW050 16/12 Q1021 R28L/090070 NOSIG 
18:18:57 wx upd end $$$
18:20:31 wx upd begin $$$
18:20:32 received ULLI 041800Z 28003MPS 9999 FEW050 16/12 Q1021 R28L/090070 NOSIG 
18:20:32 wx upd end $$$
18:22:08 wx upd begin $$$
18:22:08 received ULLI 041800Z 28003MPS 9999 FEW050 16/12 Q1021 R28L/090070 NOSIG 
18:22:08 wx upd end $$$
18:24:02 wx upd begin $$$
18:24:03 received ULLI 041800Z 28003MPS 9999 FEW050 16/12 Q1021 R28L/090070 NOSIG 
18:24:03 wx upd end $$$
18:25:43 wx upd begin $$$
18:25:43 received ULLI 041800Z 28003MPS 9999 FEW050 16/12 Q1021 R28L/090070 NOSIG 
18:25:43 wx upd end $$$
18:28:01 wx upd begin $$$
18:28:01 received ULLI 041800Z 28003MPS 9999 FEW050 16/12 Q1021 R28L/090070 NOSIG 
18:28:01 wx upd end $$$
18:29:42 wx upd begin $$$
18:29:42 received ULLI 041800Z 28003MPS 9999 FEW050 16/12 Q1021 R28L/090070 NOSIG 
18:29:42 wx upd end $$$
18:31:31 wx upd begin $$$
18:31:31 received ULLI 041800Z 28003MPS 9999 FEW050 16/12 Q1021 R28L/090070 NOSIG 
18:31:31 wx upd end $$$
18:33:34 wx upd begin $$$
18:33:35 received ULLI 041800Z 28003MPS 9999 FEW050 16/12 Q1021 R28L/090070 NOSIG 
18:33:35 wx upd end $$$
18:35:26 wx upd begin $$$
18:35:26 received ULLI 041800Z 28003MPS 9999 FEW050 16/12 Q1021 R28L/090070 NOSIG 
18:35:26 wx upd end $$$
18:37:16 wx upd begin $$$
18:37:17 received ULLI 041800Z 28003MPS 9999 FEW050 16/12 Q1021 R28L/090070 NOSIG 
18:37:17 wx upd end $$$
18:39:29 wx upd begin $$$
18:39:29 received ULLI 041830Z 26002MPS 220V290 9999 FEW050 15/12 Q1021 R28L/090070 NOSIG 
18:39:29 ULLI STAB8 BASE2100 LRATE10.000000 5079,8429,2,8,0,1,0,0,10
18:39:29 wx generated for ULLI ULLI 041830Z 26002MPS 220V290 9999 FEW050 15/12 Q1021 R28L/090070 NOSIG
18:39:29 ULLI 1021mb
18:39:29 ULLI 15C -> -85C
18:39:31 KSC set to 84 based on wx
18:39:31 fs9 wx updated for ULLI
18:39:31 wx upd end $$$
18:41:50 wx upd begin $$$
18:41:50 received ULLI 041830Z 26002MPS 220V290 9999 FEW050 15/12 Q1021 R28L/090070 NOSIG 
18:41:50 wx upd end $$$
18:44:06 wx upd begin $$$
18:44:07 received ULLI 041830Z 26002MPS 220V290 9999 FEW050 15/12 Q1021 R28L/090070 NOSIG 
18:44:07 wx upd end $$$
18:45:54 wx upd begin $$$
18:45:54 received ULLI 041830Z 26002MPS 220V290 9999 FEW050 15/12 Q1021 R28L/090070 NOSIG 
18:45:54 wx upd end $$$
18:47:39 wx upd begin $$$
18:47:39 received ULLI 041830Z 26002MPS 220V290 9999 FEW050 15/12 Q1021 R28L/090070 NOSIG 
18:47:39 wx upd end $$$
18:49:14 wx upd begin $$$
18:49:14 received ULLI 041830Z 26002MPS 220V290 9999 FEW050 15/12 Q1021 R28L/090070 NOSIG 
18:49:14 wx upd end $$$

Edited by Sergant Serge

Share this post


Link to post
Share on other sites

Всем привет. Не так давно установил аыч и решил снова попробовать фс атис(в 9 он не работал или работал но спустя какое то время вылетал с ошибкой.) Здесь такая же ерунда только фс атис вообще не хочет коннектится с симом.фсюпик и сама программа самые крайние фс атис канал с офф сайта. И вопрос возможно ли что моя проблема как то связанна с симконнектом?

Share this post


Link to post
Share on other sites

Join the conversation

You can post now and register later. If you have an account, sign in now to post with your account.
Note: Your post will require moderator approval before it will be visible.

Guest
Reply to this topic...

×   Pasted as rich text.   Paste as plain text instead

  Only 75 emoji are allowed.

×   Your link has been automatically embedded.   Display as a link instead

×   Your previous content has been restored.   Clear editor

×   You cannot paste images directly. Upload or insert images from URL.

Loading...

  • Recently Browsing   0 members

    No registered users viewing this page.

×
×
  • Create New...